FW7665 Weather Reports


Display with metric or nautical units.
time (UTC)temp
F
wind
direction
speed
MPH
gust
MPH
rain 1hr
in
rain 24hr
in
rain mn
in
humidity
%
barometer
mb
20260508221812 59 99 1.0 6.0 0.00 0.00 0.00 45 1016.4
20260508220912 60 112 2.0 7.0 0.00 0.00 0.00 41 1016.4
20260508220012 59 108 3.0 9.0 0.00 0.00 0.00 47 1016.4
20260508215412 59 101 3.0 9.0 0.00 0.00 0.00 46 1016.4
20260508214512 60 309 2.0 4.0 0.00 0.00 0.00 40 1016.4
20260508213611 60 246 1.0 4.0 0.00 0.00 0.00 33 1016.4
20260508212732 61 161 1.0 6.0 0.00 0.00 0.00 33 1016.4
20260508211811 60 7 2.0 5.0 0.00 0.00 0.00 33 1016.4
20260508210911 60 19 2.0 9.0 0.00 0.00 0.00 35 1016.4
20260508210012 61 298 2.0 9.0 0.00 0.00 0.00 31 1016.4
20260508205432 60 275 2.0 9.0 0.00 0.00 0.00 30 1016.4
20260508204511 61 190 2.0 5.0 0.00 0.00 0.00 33 1016.4
20260508203611 63 260 2.0 8.0 0.00 0.00 0.00 27 1016.4
20260508202712 62 271 2.0 9.0 0.00 0.00 0.00 31 1016.9
20260508201811 60 273 2.0 9.0 0.00 0.00 0.00 32 1016.9
20260508200911 60 322 2.0 7.0 0.00 0.00 0.00 30 1016.9
20260508200011 60 296 2.0 8.0 0.00 0.00 0.00 34 1016.9
20260508195411 60 264 3.0 7.0 0.00 0.00 0.00 32 1016.9
20260508194511 62 338 3.0 11.0 0.00 0.00 0.00 30 1016.9
20260508193611 61 271 4.0 13.0 0.00 0.00 0.00 27 1016.9
20260508192711 63 111 3.0 10.0 0.00 0.00 0.00 32 1018.3
20260508191811 62 318 3.0 10.0 0.00 0.00 0.00 29 1018.3
20260508190911 63 291 4.0 10.0 0.00 0.00 0.00 29 1018.3
20260508190011 63 299 3.0 10.0 0.00 0.00 0.00 29 1018.3
20260508185411 62 283 3.0 10.0 0.00 0.00 0.00 31 1018.3
20260508184532 62 262 4.0 12.0 0.00 0.00 0.00 30 1018.3
20260508183632 62 326 3.0 12.0 0.00 0.00 0.00 35 1018.3
20260508182711 62 312 4.0 13.0 0.00 0.00 0.00 34 1018.3
20260508181811 62 331 3.0 10.0 0.00 0.00 0.00 31 1018.3
20260508180911 60 274 3.0 8.0 0.00 0.00 0.00 31 1018.3
20260508180011 61 274 3.0 9.0 0.00 0.00 0.00 33 1018.3
20260508175432 60 273 3.0 8.0 0.00 0.00 0.00 31 1018.3
20260508174511 60 63 4.0 13.0 0.00 0.00 0.00 32 1018.3
20260508173611 59 314 3.0 9.0 0.00 0.00 0.00 34 1018.3
20260508172711 59 285 2.0 7.0 0.00 0.00 0.00 39 1018.3
20260508171811 58 327 3.0 9.0 0.00 0.00 0.00 32 1018.3
20260508170911 58 65 3.0 9.0 0.00 0.00 0.00 36 1018.3
20260508170032 58 322 3.0 6.0 0.00 0.00 0.00 37 1018.3
20260508165413 57 296 2.0 8.0 0.00 0.00 0.00 38 1018.3
20260508164511 56 104 3.0 8.0 0.00 0.00 0.00 40 1018.3
20260508163611 55 313 2.0 8.0 0.00 0.00 0.00 40 1018.3
20260508162711 54 43 2.0 7.0 0.00 0.00 0.00 41 1018.3
20260508161831 54 292 3.0 9.0 0.00 0.00 0.00 41 1018.3
20260508160910 54 276 3.0 9.0 0.00 0.00 0.00 39 1018.3
20260508160011 54 71 1.0 4.0 0.00 0.00 0.00 44 1018.3
20260508155411 53 56 1.0 4.0 0.00 0.00 0.00 43 1018.3
20260508154531 52 95 1.0 4.0 0.00 0.00 0.00 44 1018.3
20260508153610 51 98 2.0 7.0 0.00 0.00 0.00 46 1018.3
20260508152710 50 291 1.0 7.0 0.00 0.00 0.00 48 1018.3
20260508151810 49 68 1.0 3.0 0.00 0.00 0.00 48 1018.3
20260508150910 47 60 1.0 3.0 0.00 0.00 0.00 59 1018.3
20260508150010 48 60 1.0 3.0 0.00 0.00 0.00 60 1018.3
20260508145410 48 69 1.0 4.0 0.00 0.00 0.00 66 1018.3
20260508144511 45 84 1.0 5.0 0.00 0.00 0.00 74 1018.3
20260508143610 42 65 1.0 3.0 0.00 0.00 0.00 82 1018.3
20260508142710 41 104 2.0 4.0 0.00 0.00 0.00 84 1018.3
20260508141810 40 119 1.0 2.0 0.00 0.00 0.00 88 1018.3
20260508140910 39 97 3.0 8.0 0.00 0.00 0.00 89 1018.3
20260508140031 38 89 2.0 6.0 0.00 0.00 0.00 88 1018.3
20260508135410 37 64 1.0 3.0 0.00 0.00 0.00 88 1018.3
20260508134531 36 94 2.0 4.0 0.00 0.00 0.00 88 1018.3
20260508133610 34 111 1.0 4.0 0.00 0.00 0.00 89 1018.3
20260508132710 33 0 0.0 0.0 0.00 0.00 0.00 89 1018.3
20260508131811 33 0 0.0 0.0 0.00 0.00 0.00 89 1017.7
20260508130910 33 0 0.0 0.0 0.00 0.00 0.00 89 1017.7
20260508130010 33 120 0.0 1.0 0.00 0.00 0.00 89 1017.7
20260508125410 32 120 0.0 2.0 0.00 0.00 0.00 89 1017.7
20260508124510 32 0 0.0 0.0 0.00 0.00 0.00 89 1017.7
20260508123610 32 120 0.0 2.0 0.00 0.00 0.00 89 1016.9
20260508122710 32 0 0.0 0.0 0.00 0.00 0.00 89 1016.9
20260508121830 32 0 0.0 0.0 0.00 0.00 0.00 89 1016.9
20260508120931 32 0 0.0 0.0 0.00 0.00 0.00 89 1016.9
20260508120010 32 0 0.0 0.0 0.00 0.00 0.00 89 1016.9
20260508115409 32 0 0.0 0.0 0.00 0.00 0.00 89 1016.9
20260508114509 32 0 0.0 0.0 0.00 0.00 0.00 89 1016.9
20260508113609 32 0 0.0 0.0 0.00 0.00 0.00 89 1016.8
20260508112710 32 0 0.0 0.0 0.00 0.00 0.00 89 1016.8
20260508111810 32 0 0.0 0.0 0.00 0.00 0.00 89 1016.8
20260508110910 32 0 0.0 0.0 0.00 0.00 0.00 89 1016.8
20260508110010 33 0 0.0 0.0 0.00 0.00 0.00 89 1016.8
20260508105409 33 0 0.0 0.0 0.00 0.00 0.00 89 1016.8
20260508104509 33 0 0.0 0.0 0.00 0.00 0.00 89 1016.8
20260508103609 33 119 0.0 1.0 0.00 0.00 0.00 89 1016.8
20260508102709 33 119 0.0 1.0 0.00 0.00 0.00 89 1016.8
20260508101830 33 117 0.0 1.0 0.00 0.00 0.00 89 1016.8
20260508100909 33 0 0.0 0.0 0.00 0.00 0.00 89 1016.8
20260508095409 34 0 0.0 0.0 0.00 0.00 0.00 89 1016.3
20260508094530 34 117 0.0 1.0 0.00 0.00 0.00 89 1016.3
20260508093609 34 0 0.0 0.0 0.00 0.00 0.00 89 1016.6
20260508092709 33 126 2.0 11.0 0.00 0.00 0.00 89 1016.6
20260508091809 33 128 1.0 11.0 0.00 0.00 0.00 89 1016.6
20260508090909 33 0 0.0 0.0 0.00 0.00 0.00 88 1016.6
20260508090031 34 0 0.0 0.0 0.00 0.00 0.00 88 1016.6
20260508085409 34 0 0.0 0.0 0.00 0.00 0.00 88 1016.6
20260508084509 34 0 0.0 0.0 0.00 0.00 0.00 88 1016.6
20260508083609 34 0 0.0 0.0 0.00 0.00 0.00 89 1017.7
20260508082709 35 0 0.0 0.0 0.00 0.00 0.00 89 1017.7
20260508081830 35 0 0.0 0.0 0.00 0.00 0.00 88 1017.7
20260508080909 35 0 0.0 0.0 0.00 0.00 0.00 88 1017.7
20260508080010 35 0 0.0 0.0 0.00 0.00 0.00 88 1017.7
20260508075409 35 0 0.0 0.0 0.00 0.00 0.00 88 1017.7
20260508074530 35 0 0.0 0.0 0.00 0.00 0.00 88 1017.7
20260508073609 35 0 0.0 0.0 0.00 0.00 0.00 88 1017.7
20260508072730 35 177 0.0 1.0 0.00 0.00 0.00 88 1017.7
20260508071808 35 0 0.0 0.0 0.00 0.00 0.00 88 1017.7
20260508070909 36 0 0.0 0.0 0.00 0.00 0.00 87 1017.7
20260508070035 36 0 0.0 0.0 0.00 0.00 0.00 87 1017.7
20260508065409 36 0 0.0 0.0 0.00 0.00 0.00 87 1017.7
20260508064509 36 0 0.0 0.0 0.00 0.00 0.00 87 1017.7
20260508063609 36 179 0.0 2.0 0.00 0.00 0.00 87 1017.7
20260508062729 36 189 0.0 2.0 0.00 0.00 0.00 88 1017.7
20260508061809 36 0 0.0 0.0 0.00 0.00 0.00 87 1017.7
20260508060909 36 0 0.0 0.0 0.00 0.00 0.00 87 1017.7
20260508060013 36 232 0.0 1.0 0.00 0.00 0.00 87 1017.7
20260508055408 36 231 0.0 1.0 0.00 0.00 0.00 88 1017.7
20260508054509 36 0 0.0 0.0 0.00 0.00 0.00 88 1017.3
20260508053610 36 231 0.0 1.0 0.00 0.00 0.00 88 1017.3
20260508052708 36 232 0.0 2.0 0.00 0.00 0.00 88 1017.3
20260508051809 36 228 0.0 2.0 0.00 0.00 0.00 89 1017.3
20260508050930 36 227 0.0 1.0 0.00 0.00 0.00 89 1017.3
20260508050009 36 0 0.0 0.0 0.00 0.00 0.00 89 1017.3
20260508045408 36 0 0.0 0.0 0.00 0.00 0.00 89 1017.3
20260508044508 36 0 0.0 0.0 0.00 0.00 0.00 89 1017.7
20260508043608 36 0 0.0 0.0 0.00 0.00 0.00 89 1017.7
20260508042708 36 0 0.0 0.0 0.00 0.00 0.00 89 1017.7
20260508041808 36 0 0.0 0.0 0.00 0.00 0.00 89 1017.7
20260508040908 36 0 0.0 0.0 0.00 0.00 0.00 88 1017.7
20260508040009 36 0 0.0 0.0 0.00 0.00 0.00 88 1017.7
20260508035408 36 0 0.0 0.0 0.00 0.00 0.00 88 1017.7
20260508034508 36 0 0.0 0.0 0.00 0.00 0.00 88 1017.7
20260508033608 36 0 0.0 0.0 0.00 0.00 0.00 88 1017.7
20260508032708 36 227 0.0 1.0 0.00 0.00 0.00 88 1017.7
20260508031808 37 0 0.0 0.0 0.00 0.00 0.00 88 1017.7
20260508030929 37 0 0.0 0.0 0.00 0.00 0.00 87 1017.7
20260508030008 37 0 0.0 0.0 0.00 0.00 0.00 87 1017.7
20260508025407 37 227 0.0 1.0 0.00 0.00 0.00 86 1017.7
20260508024529 38 0 0.0 0.0 0.00 0.00 0.00 86 1017.9
20260508023608 38 0 0.0 0.0 0.00 0.00 0.00 85 1017.9
20260508022708 38 0 0.0 0.0 0.00 0.00 0.00 85 1017.9
20260508021808 39 0 0.0 0.0 0.00 0.00 0.00 84 1017.9
20260508020928 40 0 0.0 0.0 0.00 0.00 0.00 83 1017.9
20260508020008 40 0 0.0 0.0 0.00 0.00 0.00 80 1017.9
20260508015408 40 0 0.0 0.0 0.00 0.00 0.00 79 1017.9
20260508014508 41 0 0.0 0.0 0.00 0.00 0.00 78 1016.9
20260508013631 41 225 0.0 1.0 0.00 0.00 0.00 75 1016.9
20260508012707 42 225 0.0 2.0 0.00 0.00 0.00 74 1016.9
20260508011807 42 244 1.0 3.0 0.00 0.00 0.00 73 1016.9
20260508010911 43 241 1.0 6.0 0.00 0.00 0.00 70 1016.9
20260508010008 44 289 2.0 7.0 0.00 0.00 0.00 66 1016.9
20260508005407 44 253 2.0 7.0 0.00 0.00 0.00 68 1016.9
20260508004528 44 124 4.0 10.0 0.00 0.00 0.00 69 1018.0
20260508003609 42 94 3.0 8.0 0.00 0.00 0.00 71 1018.0
20260508002707 41 79 0.0 2.0 0.00 0.00 0.00 73 1018.0
20260508001828 43 79 0.0 2.0 0.00 0.00 0.00 69 1018.0
20260508000928 45 79 0.0 2.0 0.00 0.00 0.00 64 1018.0
20260508000007 46 28 2.0 6.0 0.00 0.00 0.00 63 1018.0
20260507235428 44 220 1.0 6.0 0.00 0.00 0.00 67 1018.0
20260507234507 42 139 0.0 2.0 0.00 0.00 0.00 73 1018.0
20260507233609 43 139 0.0 2.0 0.00 0.00 0.00 69 1018.0
20260507232712 44 139 0.0 2.0 0.00 0.00 0.00 66 1018.0
20260507231812 46 139 1.0 3.0 0.00 0.00 0.00 62 1018.0
20260507230933 47 181 1.0 4.0 0.00 0.00 0.00 57 1018.0
20260507230013 48 313 2.0 6.0 0.00 0.00 0.00 51 1018.0
20260507225412 50 62 2.0 7.0 0.00 0.00 0.00 48 1018.0
20260507224512 47 13 2.0 5.0 0.00 0.00 0.00 54 1018.0
20260507223612 48 40 2.0 5.0 0.00 0.00 0.00 56 1018.0
20260507222712 49 57 1.0 3.0 0.00 0.00 0.00 52 1018.0